DW0269 Weather Reports


Display with metric or nautical units.
time (UTC)temp
F
wind
direction
speed
MPH
gust
MPH
rain 1hr
in
rain 24hr
in
rain mn
in
humidity
%
barometer
mb
20260505073517 65 58 4.0 12.0 0.00 0.00 0.00 98 950.8
20260505073016 65 49 5.0 12.0 0.00 0.00 0.00 98 950.9
20260505072515 65 59 4.0 12.0 0.00 0.00 0.00 97 950.9
20260505072014 65 50 3.0 12.0 0.00 0.00 0.00 97 950.8
20260505071513 65 67 4.0 12.0 0.00 0.00 0.00 97 951.0
20260505071011 65 74 5.0 12.0 0.00 0.00 0.00 97 950.7
20260505070510 65 66 4.0 12.0 0.00 0.00 0.00 97 951.0
20260505070009 65 67 5.0 12.0 0.00 0.00 0.00 97 950.8
20260505065508 65 60 4.0 12.0 0.00 0.00 0.00 97 950.6
20260505065007 65 61 4.0 12.0 0.00 0.00 0.00 97 950.6
20260505064506 65 64 4.0 12.0 0.00 0.00 0.00 97 950.5
20260505064005 65 58 3.0 12.0 0.00 0.00 0.00 97 950.6
20260505063504 65 73 5.0 12.0 0.00 0.00 0.00 97 950.4
20260505063002 65 64 4.0 12.0 0.00 0.00 0.00 97 950.4
20260505062501 65 62 4.0 12.0 0.00 0.00 0.00 97 950.6
20260505062000 65 59 4.0 12.0 0.00 0.00 0.00 97 950.3
20260505061458 65 67 4.0 12.0 0.00 0.00 0.00 97 950.3
20260505060957 65 54 3.0 12.0 0.00 0.00 0.00 97 950.2
20260505060456 65 66 4.0 12.0 0.00 0.00 0.00 97 949.9
20260505055954 65 46 3.0 12.0 0.00 0.00 0.00 97 949.9
20260505054937 65 54 3.0 12.0 0.00 0.00 0.00 97 950.2
20260505054436 66 57 3.0 12.0 0.00 0.00 0.00 97 950.2
20260505053935 66 59 4.0 12.0 0.00 0.00 0.00 97 950.0
20260505053434 66 80 5.0 12.0 0.00 0.00 0.00 97 950.1
20260505052933 66 49 4.0 12.0 0.00 0.00 0.00 97 949.7
20260505052432 66 62 5.0 12.0 0.00 0.00 0.00 97 950.1
20260505051931 66 65 4.0 12.0 0.00 0.00 0.00 97 950.2
20260505051430 66 54 3.0 12.0 0.00 0.00 0.00 97 950.0
20260505050413 66 64 3.0 12.0 0.00 0.00 0.00 97 950.1
20260505041347 67 48 3.0 12.0 0.00 0.00 0.00 96 950.1
20260505040330 67 47 3.0 12.0 0.00 0.00 0.00 96 950.0
20260505035829 67 63 0.0 12.0 0.00 0.00 0.00 97 950.0
20260505035328 67 55 1.0 12.0 0.00 0.00 0.00 97 949.7
20260505034827 67 99 1.0 12.0 0.00 0.00 0.00 97 949.8
20260505034326 67 72 0.0 12.0 0.00 0.00 0.00 97 949.9
20260505033825 67 117 1.0 12.0 0.00 0.00 0.00 97 949.7
20260505033324 67 177 0.0 12.0 0.00 0.00 0.00 97 950.3
20260505032823 67 163 0.0 12.0 0.00 0.00 0.00 96 950.1
20260505031806 67 214 1.0 12.0 0.00 0.00 0.00 96 950.0
20260505031305 67 214 0.0 12.0 0.00 0.00 0.00 96 949.7
20260505030804 67 193 0.0 12.0 0.00 0.00 0.00 96 949.9
20260505030303 67 160 0.0 12.0 0.00 0.00 0.00 95 949.9
20260505025802 67 160 0.0 12.0 0.00 0.00 0.00 94 949.8
20260505025300 67 160 0.0 12.0 0.00 0.00 0.00 93 950.0
20260505024759 68 145 2.0 12.0 0.00 0.00 0.00 93 949.7
20260505023742 68 230 1.0 12.0 0.00 0.00 0.00 92 949.8
20260505022725 69 165 1.0 12.0 0.00 0.00 0.00 89 950.0
20260505022223 69 284 0.0 12.0 0.00 0.00 0.00 88 950.1
20260505021722 69 284 0.0 12.0 0.00 0.00 0.00 87 950.2
20260505021221 69 284 0.0 12.0 0.00 0.00 0.00 88 950.2
20260505020720 69 284 0.0 12.0 0.00 0.00 0.00 88 950.2
20260505015703 68 284 0.0 12.0 0.00 0.00 0.00 90 950.2
20260505015202 68 284 0.0 12.0 0.00 0.00 0.00 90 950.2
20260505014701 69 281 2.0 12.0 0.00 0.00 0.00 90 950.3
20260505013644 70 274 2.0 12.0 0.00 0.00 0.00 88 950.6
20260505012626 70 274 2.0 12.0 0.00 0.00 0.00 88 950.7
20260505012125 70 325 2.0 12.0 0.00 0.00 0.00 88 950.8
20260505011624 70 343 1.0 12.0 0.00 0.00 0.00 88 950.6
20260505011123 70 11 2.0 12.0 0.00 0.00 0.00 87 950.4
20260505010622 71 262 1.0 12.0 0.00 0.00 0.00 87 950.4
20260505005605 71 343 2.0 12.0 0.00 0.00 0.00 86 950.8
20260505004032 72 352 1.0 12.0 0.00 0.00 0.00 86 950.5
20260505003531 71 37 5.0 12.0 0.00 0.00 0.00 86 950.3
20260505003030 71 31 3.0 12.0 0.00 0.00 0.00 87 950.1
20260505002013 72 34 4.0 12.0 0.00 0.00 0.00 85 950.4
20260505001512 72 27 3.0 12.0 0.00 0.00 0.00 86 950.2
20260505001011 72 48 4.0 12.0 0.00 0.00 0.00 85 950.2
20260505000510 73 28 5.0 12.0 0.00 0.00 0.00 83 950.3
20260505000009 74 39 4.0 12.0 0.00 0.00 0.00 83 950.3
20260504235508 75 36 4.0 12.0 0.00 0.00 0.00 83 950.3
20260504235007 75 81 1.0 12.0 0.00 0.00 0.00 84 950.4
20260504234506 75 30 3.0 12.0 0.00 0.00 0.00 83 950.2
20260504234005 75 29 5.0 12.0 0.00 0.00 0.00 83 950.2
20260504233504 75 40 4.0 12.0 0.00 0.00 0.00 83 950.5
20260504232447 73 37 5.0 12.0 0.00 0.00 0.00 86 950.5
20260504231946 73 31 4.0 12.0 0.00 0.00 0.00 88 950.8
20260504230929 72 57 4.0 12.0 0.00 0.00 0.00 87 950.6
20260504230428 72 54 2.0 12.0 0.00 0.00 0.00 89 950.9
20260504225927 71 41 3.0 12.0 0.00 0.00 0.00 89 950.8
20260504224910 71 73 5.0 14.0 0.00 0.00 0.00 87 951.0
20260504224409 72 51 4.0 14.0 0.00 0.00 0.00 87 950.7
20260504223908 72 61 4.0 14.0 0.00 0.00 0.00 85 951.4
20260504223407 73 40 5.0 14.0 0.00 0.00 0.00 85 951.0
20260504222906 73 40 3.0 14.0 0.00 0.00 0.00 85 950.9
20260504222406 74 54 5.0 14.0 0.00 0.00 0.00 83 951.0
20260504221905 74 39 6.0 14.0 0.00 0.00 0.00 84 951.0
20260504220847 74 46 5.0 14.0 0.00 0.00 0.00 83 950.9
20260504220346 74 42 4.0 14.0 0.00 0.00 0.00 85 951.1
20260504215846 73 58 4.0 14.0 0.00 0.00 0.00 86 951.3
20260504215344 73 59 5.0 14.0 0.00 0.00 0.00 86 951.1
20260504214327 73 72 5.0 13.0 0.00 0.00 0.00 87 951.2
20260504213827 73 65 5.0 15.0 0.00 0.00 0.00 85 951.0
20260504213325 73 64 4.0 15.0 0.00 0.00 0.00 86 951.2
20260504212825 73 79 7.0 13.0 0.00 0.00 0.00 83 951.3
20260504212324 73 89 6.0 13.0 0.00 0.00 0.00 84 951.2
20260504211823 73 68 6.0 13.0 0.00 0.00 0.00 87 951.0
20260504211322 73 87 4.0 12.0 0.00 0.00 0.00 88 951.2
20260504210304 73 58 6.0 13.0 0.00 0.00 0.00 84 950.9
20260504205803 74 61 6.0 11.0 0.00 0.00 0.00 84 951.3
20260504205304 74 51 5.0 11.0 0.00 0.00 0.00 84 951.0
20260504204802 74 53 4.0 13.0 0.00 0.00 0.00 86 951.4
20260504204301 73 79 5.0 13.0 0.00 0.00 0.00 85 951.5
20260504203800 73 73 5.0 13.0 0.00 0.00 0.00 84 951.3
20260504203258 73 60 4.0 12.0 0.00 0.00 0.00 86 951.9
20260504202757 73 51 4.0 12.0 0.00 0.00 0.00 86 951.8
20260504202256 73 59 5.0 12.0 0.00 0.00 0.00 85 951.7
20260504201755 73 58 4.0 12.0 0.00 0.00 0.00 85 951.8
20260504201253 73 58 5.0 12.0 0.00 0.00 0.00 84 951.8
20260504200753 73 64 4.0 12.0 0.00 0.00 0.00 84 951.8
20260504200252 73 54 4.0 12.0 0.00 0.00 0.00 84 951.9
20260504195751 73 62 5.0 12.0 0.00 0.00 0.00 84 951.7
20260504195249 73 42 3.0 12.0 0.00 0.00 0.00 87 951.9
20260504194749 72 49 4.0 12.0 0.00 0.00 0.00 86 951.7
20260504194248 72 52 4.0 12.0 0.00 0.00 0.00 86 951.7
20260504193746 72 61 4.0 12.0 0.00 0.00 0.00 86 951.7
20260504193245 72 68 5.0 12.0 0.00 0.00 0.00 84 951.9
20260504192227 71 84 5.0 12.0 0.00 0.00 0.00 88 951.6
20260504191727 71 64 5.0 12.0 0.00 0.00 0.00 87 951.6
20260504190710 70 56 4.0 12.0 0.00 0.00 0.00 91 951.7
20260504190209 70 64 5.0 12.0 0.00 0.00 0.00 89 951.6
20260504185708 70 52 4.0 12.0 0.00 0.00 0.00 90 951.5
20260504184651 70 74 5.0 13.0 0.00 0.00 0.00 89 951.7
20260504184150 70 74 4.0 13.0 0.00 0.00 0.00 90 952.0
20260504182617 68 47 3.0 13.0 0.00 0.00 0.00 93 951.7
20260504182116 68 84 5.0 13.0 0.00 0.00 0.00 92 951.6
20260504181614 68 102 6.0 13.0 0.00 0.00 0.00 92 951.9
20260504180557 67 101 4.0 13.0 0.00 0.00 0.00 94 951.9
20260504175540 67 103 5.0 13.0 0.00 0.00 0.00 93 951.6
20260504175039 67 90 5.0 13.0 0.00 0.00 0.00 92 951.7
20260504174537 67 69 4.0 13.0 0.00 0.00 0.00 92 951.7
20260504173520 66 80 4.0 13.0 0.00 0.00 0.00 93 951.7
20260504173019 66 96 4.0 13.0 0.00 0.00 0.00 93 951.7
20260504172518 66 80 4.0 13.0 0.00 0.00 0.00 94 951.4
20260504172017 66 62 3.0 13.0 0.00 0.00 0.00 94 951.6
20260504171516 66 49 3.0 13.0 0.00 0.00 0.00 94 951.2
20260504171015 66 69 2.0 13.0 0.00 0.00 0.00 94 951.3
20260504170514 65 66 1.0 13.0 0.00 0.00 0.00 95 951.3
20260504150920 64 30 7.0 13.0 0.00 0.00 0.00 96 949.3
20260504140822 63 45 6.0 14.0 0.00 0.00 0.00 96 949.0
20260504140320 63 46 5.0 14.0 0.00 0.00 0.00 95 949.2
20260504130723 63 37 7.0 12.0 0.00 0.00 0.00 97 949.0
20260504130222 63 34 7.0 12.0 0.00 0.00 0.00 97 949.2
20260504120207 63 47 6.0 12.0 0.00 0.00 0.00 97 950.0
20260504110652 63 51 4.0 13.0 0.00 0.00 0.00 97 950.3
20260504110151 63 53 4.0 13.0 0.00 0.00 0.00 97 950.5
20260504100524 63 45 5.0 13.0 0.00 0.00 0.00 96 950.8
20260504081830 63 47 5.0 18.0 0.00 0.00 0.00 95 951.4
20260504081329 63 44 8.0 18.0 0.00 0.00 0.00 95 951.2
20260504080827 63 51 5.0 18.0 0.00 0.00 0.00 95 951.0